�N����,����,�~����,�C��,���x,�C��,����,���ϕ���,�ő�u�ԕ���,�ő厞����,���˗�,�I�_���x,�n�����x,�ő啗���N��,DTYPE
"23/06/06","00:10",0.0,17.5,80.0,1005.7,298.7,1.7,2.4,323.4,0.00,14.1,19.9,"00:07:12",1
"23/06/06","00:20",0.0,17.4,79.8,1005.7,315.9,1.5,2.2,316.2,0.00,13.9,19.8,"00:15:52",1
"23/06/06","00:30",0.0,17.3,80.4,1005.7,16.8,0.5,1.2,271.7,0.00,13.9,19.7,"00:28:48",1
"23/06/06","00:40",0.0,17.1,81.8,1005.7,330.4,1.3,1.7,335.3,0.00,14.0,19.8,"00:33:04",1
"23/06/06","00:50",0.0,16.7,83.0,1005.5,317.2,1.2,1.8,335.7,0.00,13.8,19.7,"00:42:08",1
"23/06/06","01:00",0.0,16.3,84.0,1005.7,306.9,1.1,1.6,320.9,0.00,13.6,19.6,"00:58:48",1
"23/06/06","01:10",0.0,16.2,84.9,1005.7,290.8,1.1,1.3,316.0,0.00,13.7,19.6,"01:01:04",1
"23/06/06","01:20",0.0,16.2,85.1,1005.7,308.0,1.5,1.9,323.7,0.00,13.7,19.7,"01:16:56",1
"23/06/06","01:30",0.0,16.4,84.9,1005.7,306.1,1.3,1.8,315.6,0.00,13.9,19.5,"01:21:12",1
"23/06/06","01:40",0.0,16.6,84.1,1005.5,323.8,1.7,2.4,320.1,0.00,13.9,19.4,"01:33:44",1
"23/06/06","01:50",0.0,16.7,83.9,1005.5,325.7,1.3,1.8,326.8,0.00,14.0,19.4,"01:40:08",1
"23/06/06","02:00",0.0,16.4,84.0,1005.5,292.6,1.0,1.6,267.6,0.00,13.7,19.3,"01:59:44",1
"23/06/06","02:10",0.0,16.3,83.9,1005.7,316.9,1.6,2.2,336.2,0.00,13.6,19.3,"02:09:52",1
"23/06/06","02:20",0.0,16.6,84.1,1005.7,329.3,1.6,2.1,337.5,0.00,13.9,19.4,"02:12:40",1
"23/06/06","02:30",0.0,16.2,84.6,1005.2,306.6,1.2,2.0,324.8,0.00,13.6,19.3,"02:20:02",1
"23/06/06","02:40",0.0,16.0,84.7,1005.7,292.0,1.3,2.0,315.2,0.00,13.5,19.2,"02:30:08",1
"23/06/06","02:50",0.0,16.0,84.7,1005.7,307.5,1.3,1.9,326.6,0.00,13.5,19.5,"02:48:08",1
"23/06/06","03:00",0.0,16.2,85.0,1005.2,330.0,1.3,1.7,326.1,0.00,13.7,19.2,"02:50:16",1
"23/06/06","03:10",0.0,15.8,85.4,1005.2,294.8,1.2,1.8,257.3,0.00,13.4,19.2,"03:07:28",1
"23/06/06","03:20",0.0,15.6,85.7,1005.2,310.4,1.5,2.1,322.3,0.00,13.3,19.1,"03:18:32",1
"23/06/06","03:30",0.0,15.7,85.7,1005.2,323.0,1.1,1.8,316.7,0.00,13.4,19.1,"03:20:08",1
"23/06/06","03:40",0.0,15.7,86.2,1005.0,297.6,1.2,1.6,325.3,0.00,13.4,19.2,"03:38:16",1
"23/06/06","03:50",0.0,15.4,86.7,1005.0,313.0,1.0,1.3,312.8,0.00,13.2,18.9,"03:48:08",1
"23/06/06","04:00",0.0,15.6,87.2,1005.0,330.3,1.3,1.7,330.3,0.00,13.5,19.0,"03:54:40",1
"23/06/06","04:10",0.0,15.4,87.7,1004.8,311.1,1.3,1.9,315.7,0.00,13.4,19.1,"04:04:24",1
"23/06/06","04:20",0.0,15.6,87.7,1004.5,293.7,1.2,1.8,301.7,0.00,13.6,19.0,"04:11:28",1
"23/06/06","04:30",0.0,15.9,87.3,1004.3,295.3,1.5,2.1,309.0,0.00,13.8,19.0,"04:29:28",1
"23/06/06","04:40",0.0,15.9,86.7,1004.8,286.4,1.2,1.9,309.0,0.00,13.7,18.9,"04:34:00",1
"23/06/06","04:50",0.0,16.1,85.9,1005.0,295.1,1.2,1.7,325.3,0.00,13.8,18.8,"04:42:48",1
"23/06/06","05:00",0.0,16.4,85.3,1004.8,319.6,1.2,1.6,331.5,0.00,14.0,18.8,"04:53:36",1
"23/06/06","05:10",0.0,16.5,85.5,1004.8,322.7,1.3,1.6,328.8,0.00,14.1,18.7,"05:02:16",1
"23/06/06","05:20",0.0,16.2,86.0,1004.8,291.4,1.2,1.7,316.9,0.00,13.9,18.7,"05:19:52",1
"23/06/06","05:30",0.0,16.0,85.8,1004.8,311.5,1.5,2.0,323.9,0.00,13.7,18.7,"05:22:08",1
"23/06/06","05:40",0.0,16.3,85.5,1005.0,318.8,1.2,1.9,320.5,0.00,13.9,18.7,"05:32:00",1
"23/06/06","05:50",0.0,16.4,85.4,1004.5,296.1,1.0,1.8,323.9,0.00,14.0,18.6,"05:42:32",1
"23/06/06","06:00",0.0,16.3,85.0,1004.8,293.0,1.1,1.4,309.8,0.00,13.8,18.8,"05:54:24",1
"23/06/06","06:10",0.0,16.7,84.9,1004.8,320.7,1.2,1.7,323.0,0.00,14.2,18.6,"06:02:08",1
"23/06/06","06:20",0.0,16.8,85.0,1005.0,320.0,1.1,1.3,322.2,0.00,14.3,18.6,"06:10:24",1
"23/06/06","06:30",0.0,16.7,85.3,1005.0,303.8,0.7,1.1,306.2,0.00,14.3,18.7,"06:21:36",1
"23/06/06","06:40",0.0,16.9,85.8,1005.2,296.7,1.1,1.8,326.9,0.00,14.5,18.7,"06:39:44",1
"23/06/06","06:50",0.0,17.0,86.2,1005.0,321.9,1.1,1.6,323.4,0.01,14.7,18.6,"06:44:24",1
"23/06/06","07:00",0.0,17.0,86.6,1005.2,306.4,1.1,1.6,320.0,0.02,14.8,18.5,"06:56:00",1
"23/06/06","07:10",0.0,17.4,86.6,1005.0,310.9,1.0,1.3,327.8,0.03,15.2,18.7,"07:02:40",1
"23/06/06","07:20",0.0,17.4,86.1,1005.2,299.7,1.0,1.7,323.0,0.04,15.1,18.6,"07:19:12",1
"23/06/06","07:30",0.0,17.6,85.2,1005.0,323.1,1.1,1.7,328.9,0.02,15.1,18.6,"07:20:32",1
"23/06/06","07:40",0.0,17.8,84.4,1005.5,324.9,1.0,1.3,317.3,0.02,15.2,18.7,"07:34:16",1
"23/06/06","07:50",0.0,18.0,83.9,1005.2,285.5,0.6,1.0,277.5,0.02,15.3,18.7,"07:47:52",1
"23/06/06","08:00",0.0,18.0,83.9,1005.2,315.0,1.1,1.3,325.0,0.02,15.3,18.6,"07:56:00",1
"23/06/06","08:10",0.0,18.1,83.9,1005.2,324.4,1.1,1.4,321.9,0.03,15.4,18.8,"08:01:20",1
"23/06/06","08:20",0.0,18.2,83.8,1004.8,330.0,1.2,1.8,335.9,0.04,15.5,18.6,"08:16:32",1
"23/06/06","08:30",0.0,18.0,83.4,1004.8,313.6,1.3,2.0,307.4,0.03,15.2,18.7,"08:26:08",1
"23/06/06","08:40",0.0,18.3,82.7,1005.0,291.0,1.1,1.6,254.4,0.05,15.3,18.6,"08:36:08",1
"23/06/06","08:50",0.0,18.4,81.8,1004.5,315.2,1.3,2.0,336.1,0.05,15.3,18.6,"08:40:40",1
"23/06/06","09:00",0.0,18.7,81.3,1004.5,324.2,1.2,1.8,335.3,0.05,15.5,18.7,"08:59:44",1
"23/06/06","09:10",0.0,19.1,81.5,1004.5,317.1,1.3,1.8,330.2,0.07,15.9,18.5,"09:03:04",1
"23/06/06","09:20",0.0,19.1,80.9,1004.8,316.5,1.3,2.0,319.8,0.08,15.8,18.6,"09:17:28",1
"23/06/06","09:30",0.0,19.7,79.8,1004.8,311.7,1.3,2.1,333.3,0.12,16.2,18.6,"09:23:52",1
"23/06/06","09:40",0.0,20.1,78.4,1004.1,287.7,0.7,1.1,284.4,0.11,16.3,18.7,"09:31:52",1
"23/06/06","09:50",0.0,20.7,76.9,1004.3,308.9,0.7,1.3,337.1,0.12,16.5,18.7,"09:43:52",1
"23/06/06","10:00",0.0,20.8,73.9,1004.1,301.7,1.1,1.8,343.6,0.13,16.0,18.6,"09:58:48",1
"23/06/06","10:10",0.0,21.3,72.1,1004.1,342.1,0.7,1.7,338.0,0.14,16.1,18.6,"10:00:24",1
"23/06/06","10:20",0.0,21.6,70.9,1003.8,1.2,0.7,1.6,338.9,0.15,16.1,18.9,"10:17:20",1
"23/06/06","10:30",0.0,21.9,70.0,1004.1,337.3,0.7,1.7,357.2,0.16,16.2,18.8,"10:29:20",1
"23/06/06","10:40",0.0,22.3,67.7,1003.8,353.1,1.3,2.1,336.9,0.20,16.1,18.8,"10:30:16",1
"23/06/06","10:50",0.0,22.3,66.1,1003.6,244.4,1.0,2.1,229.3,0.20,15.7,18.8,"10:49:36",1
"23/06/06","11:00",0.0,22.5,67.6,1003.6,191.9,0.5,1.3,224.9,0.14,16.3,18.8,"10:50:08",1
"23/06/06","11:10",0.0,22.5,67.6,1003.4,174.9,0.3,1.0,227.8,0.15,16.3,18.9,"11:06:24",1
"23/06/06","11:20",0.0,22.9,64.8,1003.4,275.7,0.8,1.7,216.8,0.20,16.0,18.9,"11:18:32",1
"23/06/06","11:30",0.0,23.3,65.6,1003.4,177.8,0.7,1.4,105.6,0.19,16.5,18.8,"11:23:04",1
"23/06/06","11:40",0.0,23.1,64.9,1003.4,171.4,1.0,1.9,133.2,0.15,16.2,18.9,"11:34:40",1
"23/06/06","11:50",0.0,22.9,65.4,1003.4,212.3,0.8,2.1,241.8,0.09,16.1,18.9,"11:45:28",1
"23/06/06","12:00",0.0,22.5,66.7,1003.4,179.3,0.7,1.7,176.9,0.06,16.0,19.1,"11:59:12",1
"23/06/06","12:10",0.0,22.6,66.5,1003.4,177.1,0.8,2.1,204.3,0.10,16.1,19.1,"12:01:52",1
"23/06/06","12:20",0.0,23.3,66.0,1003.4,230.5,1.1,2.4,235.1,0.18,16.6,19.0,"12:10:08",1
"23/06/06","12:30",0.0,23.0,64.2,1003.1,200.3,1.6,3.4,239.2,0.16,15.9,19.0,"12:26:48",1
"23/06/06","12:40",0.0,23.1,63.7,1003.4,268.6,1.2,2.4,234.0,0.14,15.9,19.1,"12:34:08",1
"23/06/06","12:50",0.0,22.9,63.5,1003.6,232.4,1.7,4.2,241.2,0.12,15.7,19.3,"12:47:44",1
"23/06/06","13:00",0.0,22.8,65.1,1003.4,233.7,2.0,3.6,227.3,0.11,15.9,19.1,"12:50:24",1
"23/06/06","13:10",0.0,22.6,65.1,1002.9,237.4,1.7,3.5,240.6,0.13,15.8,19.2,"13:03:04",1
"23/06/06","13:20",0.0,22.4,64.6,1003.1,218.1,1.8,4.1,202.1,0.12,15.4,19.2,"13:11:52",1
"23/06/06","13:30",0.0,22.1,64.4,1002.9,215.8,1.7,3.4,231.5,0.10,15.1,19.4,"13:28:16",1
"23/06/06","13:40",0.0,21.9,65.7,1002.9,225.1,2.6,5.1,234.4,0.07,15.2,19.2,"13:37:52",1
"23/06/06","13:50",0.0,21.4,67.8,1002.6,240.5,2.1,4.3,235.0,0.06,15.2,19.2,"13:43:04",1
"23/06/06","14:00",0.0,21.2,70.1,1002.6,268.2,1.2,2.4,259.6,0.06,15.6,19.3,"13:50:40",1
"23/06/06","14:10",0.2,20.9,72.6,1002.4,267.0,1.5,2.5,251.8,0.07,15.8,19.2,"14:04:32",1
"23/06/06","14:20",0.0,20.8,75.3,1002.6,307.1,1.7,2.8,316.6,0.11,16.3,19.2,"14:18:08",1
"23/06/06","14:30",0.0,21.0,75.8,1002.6,310.9,1.8,4.0,343.4,0.20,16.6,19.3,"14:27:28",1
"23/06/06","14:40",0.2,20.6,76.7,1002.4,325.4,1.8,2.9,336.4,0.22,16.4,19.2,"14:39:04",1
"23/06/06","14:50",0.0,20.5,76.2,1002.9,319.0,2.1,3.3,332.4,0.19,16.2,19.4,"14:48:40",1
"23/06/06","15:00",0.0,20.6,76.1,1002.6,326.2,1.6,2.6,339.7,0.15,16.3,19.2,"14:57:44",1
"23/06/06","15:10",0.0,20.9,76.5,1002.6,292.4,1.5,3.2,336.3,0.20,16.7,19.6,"15:05:44",1
"23/06/06","15:20",0.0,20.8,75.9,1002.9,316.1,1.5,2.4,328.6,0.22,16.4,19.3,"15:17:44",1
"23/06/06","15:30",0.0,21.2,74.6,1002.4,307.6,1.6,4.0,341.0,0.22,16.6,19.4,"15:27:04",1
"23/06/06","15:40",0.0,21.4,73.4,1002.2,324.6,1.5,3.6,341.2,0.17,16.5,19.4,"15:38:40",1
"23/06/06","15:50",0.0,21.6,73.1,1001.9,348.5,1.1,2.9,332.8,0.16,16.6,19.4,"15:42:48",1
"23/06/06","16:00",0.0,21.4,71.9,1002.2,10.5,0.5,1.2,118.9,0.09,16.2,19.5,"15:55:44",1
"23/06/06","16:10",0.0,21.1,72.5,1002.2,341.0,0.8,2.5,333.2,0.05,16.0,19.3,"16:05:44",1
"23/06/06","16:20",0.0,20.7,73.4,1002.2,326.3,0.8,1.8,335.7,0.02,15.8,19.5,"16:16:16",1
"23/06/06","16:30",0.0,20.7,75.9,1001.9,340.9,1.3,2.2,332.2,0.02,16.3,19.4,"16:29:52",1
"23/06/06","16:40",0.0,20.3,78.9,1002.2,332.6,1.2,2.0,333.5,0.02,16.6,19.5,"16:30:40",1
"23/06/06","16:50",0.2,20.0,81.2,1001.5,339.3,1.2,1.9,337.1,0.04,16.7,19.5,"16:45:44",1
"23/06/06","17:00",0.0,19.9,83.2,1001.5,320.8,1.5,2.2,328.2,0.08,17.0,19.4,"16:58:40",1
"23/06/06","17:10",0.2,19.7,84.4,1001.5,327.9,1.6,2.2,337.4,0.12,17.0,19.5,"17:04:16",1
"23/06/06","17:20",0.2,19.6,85.1,1001.7,319.1,1.6,2.2,295.1,0.09,17.1,19.5,"17:19:20",1
"23/06/06","17:30",0.0,19.7,85.8,1001.7,282.4,1.5,2.8,255.5,0.09,17.3,19.6,"17:29:20",1
"23/06/06","17:40",0.0,19.5,86.6,1001.7,286.1,1.7,3.1,315.9,0.07,17.2,19.4,"17:32:24",1
"23/06/06","17:50",0.0,19.5,87.3,1001.7,303.5,1.5,2.5,251.7,0.03,17.4,19.4,"17:42:08",1
"23/06/06","18:00",0.0,19.2,87.8,1001.7,331.5,1.7,3.2,334.0,0.01,17.2,19.4,"17:51:12",1
"23/06/06","18:10",0.2,19.0,88.4,1001.7,334.6,1.2,2.0,334.4,0.01,17.1,19.3,"18:09:16",1
"23/06/06","18:20",0.0,19.0,88.9,1002.2,328.1,1.3,2.0,324.1,0.00,17.2,19.5,"18:12:40",1
"23/06/06","18:30",0.0,18.9,89.3,1002.2,316.1,1.1,1.8,322.0,0.00,17.1,19.5,"18:28:56",1
"23/06/06","18:40",0.0,18.8,89.8,1001.7,314.2,1.3,2.4,325.3,0.00,17.1,19.5,"18:35:28",1
"23/06/06","18:50",0.2,18.6,90.2,1002.2,317.7,1.0,1.7,335.5,0.00,17.0,19.6,"18:43:52",1
"23/06/06","19:00",0.0,18.4,90.7,1002.2,294.5,1.3,2.1,320.0,0.00,16.9,19.6,"18:51:12",1
"23/06/06","19:10",0.2,18.2,91.1,1002.4,304.3,1.7,3.5,333.4,0.00,16.8,19.5,"19:07:28",1
"23/06/06","19:20",0.0,18.1,91.5,1002.2,288.1,1.3,2.4,321.5,0.00,16.7,19.4,"19:13:44",1
"23/06/06","19:30",0.2,17.8,91.8,1002.4,273.9,1.6,2.5,260.5,0.00,16.5,19.4,"19:23:28",1
"23/06/06","19:40",0.2,17.7,92.2,1002.6,308.4,2.1,3.3,304.8,0.00,16.5,19.4,"19:34:40",1
"23/06/06","19:50",0.2,17.6,92.5,1002.6,326.5,1.8,3.2,314.5,0.00,16.4,19.5,"19:40:32",1
"23/06/06","20:00",0.2,17.6,92.7,1002.4,294.1,1.6,2.4,324.2,0.00,16.4,19.2,"19:51:20",1
"23/06/06","20:10",0.0,17.5,93.0,1002.6,302.6,1.8,2.9,288.6,0.00,16.4,19.5,"20:09:48",1
"23/06/06","20:20",0.0,17.4,93.3,1002.9,302.4,1.7,3.4,320.8,0.00,16.3,19.3,"20:12:38",1
"23/06/06","20:30",0.0,17.4,93.5,1003.1,313.5,2.0,2.9,341.4,0.00,16.4,19.3,"20:22:26",1
"23/06/06","20:40",0.0,17.4,93.7,1003.4,249.5,1.1,2.4,253.2,0.00,16.4,19.3,"20:34:24",1
"23/06/06","20:50",0.0,17.3,93.8,1003.1,254.9,0.8,1.7,284.1,0.00,16.3,19.3,"20:46:56",1
"23/06/06","21:00",0.0,17.3,94.0,1003.1,256.6,1.2,2.0,253.6,0.00,16.4,19.3,"20:57:36",1
"23/06/06","21:10",0.0,17.4,94.2,1003.1,309.9,1.5,2.6,309.6,0.00,16.5,19.3,"21:08:36",1
"23/06/06","21:20",0.0,17.5,94.3,1002.9,308.0,1.7,2.5,316.3,0.00,16.6,19.1,"21:12:08",1
"23/06/06","21:30",0.0,17.4,94.4,1002.9,299.1,1.5,1.9,317.4,0.00,16.5,19.4,"21:21:12",1
"23/06/06","21:40",0.0,17.3,94.6,1003.1,313.4,1.5,1.9,332.6,0.00,16.5,19.3,"21:30:16",1
"23/06/06","21:50",0.0,17.3,94.7,1003.4,296.5,1.2,1.7,325.8,0.00,16.5,19.3,"21:40:40",1
"23/06/06","22:00",0.0,17.2,94.8,1003.1,313.8,1.5,2.2,318.2,0.00,16.4,19.2,"21:52:48",1
"23/06/06","22:10",0.0,17.2,94.9,1003.4,313.9,1.3,1.8,323.2,0.00,16.4,19.3,"22:08:48",1
"23/06/06","22:20",0.0,17.2,95.1,1002.9,297.2,1.3,1.7,317.9,0.00,16.4,19.1,"22:10:56",1
"23/06/06","22:30",0.0,17.1,95.2,1002.6,310.2,1.3,1.8,311.1,0.00,16.4,19.0,"22:20:16",1
"23/06/06","22:40",0.0,17.1,95.3,1003.1,307.5,1.5,2.6,325.7,0.00,16.4,19.2,"22:38:32",1
"23/06/06","22:50",0.0,17.1,95.4,1003.1,326.3,1.3,1.8,302.6,0.00,16.4,19.1,"22:41:12",1
"23/06/06","23:00",0.0,17.1,95.5,1002.6,306.2,1.1,1.8,306.9,0.00,16.4,19.2,"22:56:24",1
"23/06/06","23:10",0.0,17.1,95.6,1002.6,303.0,1.1,1.7,270.4,0.00,16.4,19.1,"23:09:28",1
"23/06/06","23:20",0.0,17.1,95.7,1002.6,277.0,1.2,1.4,267.0,0.00,16.4,19.2,"23:13:04",1
"23/06/06","23:30",0.0,17.1,95.8,1002.9,318.1,1.3,2.2,319.4,0.00,16.5,19.1,"23:27:28",1
"23/06/06","23:40",0.0,17.2,95.8,1002.6,326.8,1.5,2.2,327.7,0.00,16.6,19.3,"23:30:40",1
"23/06/06","23:50",0.0,17.2,95.9,1002.6,321.4,1.3,1.7,331.3,0.00,16.6,19.2,"23:42:00",1
"23/06/06","24:00",0.0,17.2,96.0,1002.4,311.2,1.2,1.9,332.9,0.00,16.6,19.1,"23:51:28",1
